Home   Weather   Springfield   Past weeks

Flag for USA Past Weather in Springfield, Massachusetts, USA — Yesterday and Last 2 Weeks

Now
36 °F

Light rain. Low clouds.


Feels Like: 28 °F
Forecast: 34 / 37 °F
Wind: 10 mph from North

Location: Barnes Municipal Airport

Current Time: Jan 18, 2017 at 1:23:13 pm

Latest Report: Jan 18, 2017 at 12:53 pm


Visibility: 2 mi

Pressure: 29.96 "Hg

Humidity: N/A

Dew Point: N/A

Location of SpringfieldLocation

Past Weather in Springfield — Graph

°F

Springfield Temperature Yesterday

Maximum temperature yesterday: 38 °F (at 12:53 pm)
Minimum temperature yesterday: 26 °F (at 4:53 am)
Average temperature yesterday: 32 °F

High & Low Weather Summary for the Past Weeks

 TemperatureHumidityPressure
High54 °F (Jan 12, 12:53 pm)100% (Jan 3, 11:08 am)30.73 "Hg (Jan 3, 11:08 am)
Low-2 °F (Jan 9, 5:53 am)31% (Jan 13, 2:53 pm)29.39 "Hg (Jan 4, 5:03 am)
Average29 °F75%30.16 "Hg
* Reported Jan 3 11:08 am — Jan 18 11:53 am, Springfield, Weather by CustomWeather, © 2017

Note: Actual official high and low records may vary slightly from our data, if they occured in-between our weather recording intervals... More about our weather records

Advertising

Springfield Weather History for the Previous 24 Hours

Scroll right to see more
 ConditionsComfort  
Time TempWeatherWind HumidityBarometerVisibility
11:53 am
Wed, Jan 18
35 °FFog.9 mph100%29.96 "Hg2 mi
10:53 am35 °FFog.7 mph100%29.98 "Hg2 mi
9:53 am35 °FFog.7 mph96%30.00 "Hg2 mi
8:53 am34 °FLight rain. Fog.7 mph100%30.00 "Hg2 mi
8:04 am34 °FLight rain. Fog.7 mph97%29.97 "Hg2 mi
7:53 am33 °FLight rain. Fog.7 mph100%29.98 "Hg2 mi
6:53 am33 °FLight snow. Fog.7 mph100%29.97 "Hg2 mi
6:42 am33 °FLight snow. Fog.8 mph100%29.96 "Hg2 mi
6:01 am34 °FLight rain. Fog.8 mph97%29.96 "Hg2 mi
4:53 am33 °FLight rain. Low clouds.8 mph100%29.97 "Hg8 mi
3:53 am33 °FLight rain. Low clouds.7 mph100%29.97 "Hg7 mi
3:02 am33 °FMostly cloudy.9 mph100%29.97 "Hg7 mi
2:53 am33 °FMostly cloudy.8 mph100%29.99 "Hg7 mi
1:53 am33 °FLight rain. Fog.6 mph100%30.00 "Hg6 mi
1:27 am33 °FLight rain. Fog.7 mph100%29.99 "Hg5 mi
1:06 am33 °FRain. Fog.6 mph100%30.00 "Hg3 mi
12:21 am33 °FLight rain. Fog.5 mph100%30.03 "Hg2 mi
12:11 am33 °FLight rain. Fog.3 mph100%30.03 "Hg2 mi
11:53 pm
Tue, Jan 17
33 °FLight rain. Fog.5 mph100%30.06 "Hg3 mi
11:42 pm33 °FLight rain. Fog.6 mph100%30.04 "Hg3 mi
11:16 pm33 °FRain. Fog.3 mph100%30.05 "Hg2 mi
10:53 pm33 °FFog.3 mph100%30.08 "Hg2 mi
10:33 pm33 °FLight rain. Fog.3 mph100%30.07 "Hg2 mi
10:01 pm33 °FLight rain. Fog.3 mph100%30.07 "Hg2 mi
9:27 pm33 °FLight rain. Fog.6 mph96%30.08 "Hg4 mi
9:06 pm33 °FFog.6 mph96%30.09 "Hg4 mi
8:53 pm33 °FLight rain. Fog.No wind100%30.11 "Hg4 mi
8:35 pm33 °FLight rain. Fog.No wind100%30.10 "Hg3 mi
7:53 pm33 °FLight rain. Fog.No wind96%30.14 "Hg4 mi
6:53 pm33 °FLight rain. Overcast.No wind96%30.17 "Hg9 mi
5:53 pm33 °FRain. Fog.3 mph96%30.16 "Hg5 mi
4:53 pm34 °FLight rain. Overcast.3 mph85%30.16 "Hg9 mi
3:53 pm35 °FOvercast.3 mph78%30.15 "Hg10 mi
2:53 pm36 °FLight rain. Overcast.3 mph62%30.16 "Hg10 mi
1:53 pm38 °FOvercast.5 mph48%30.17 "Hg10 mi
Weather by CustomWeather, © 2017

See weather overviewHow to use our weather pages